Probability
0 0 0 0 0 0 0 0 0 0 0 1 5 13 21 27 34 39 39 39 38 36 37 39 39 38 37 37 38 40 37 32 29 26 22 18 12 11 11 8 5 5 6 7
0 0 0 0 0 0 0 0 0 0 0 1 4 10 18 25 32 40 44 45 43 42 43 44 44 43 40 39 41 41 36 31 28 27 24 17 12 12 12 12 9 8 9 9
0 0 0 0 0 0 0 0 0 0 0 0 2 6 11 18 28 38 47 50 49 48 48 50 52 51 46 43 42 41 34 28 27 28 25 19 13 13 13 14 15 15 14 13
0 0 0 0 0 0 0 0 0 0 0 0 1 2 5 11 21 30 41 49 51 51 53 57 59 58 53 48 44 40 33 28 27 27 25 20 15 12 10 11 16 19 18 17
0 0 0 0 0 0 0 0 0 0 0 0 0 1 2 6 13 22 34 47 53 55 59 63 64 62 57 52 45 40 35 32 30 28 25 22 16 11 7 8 12 16 18 19
0 0 0 0 0 0 0 0 0 0 0 0 0 0 1 3 9 17 30 46 56 61 65 66 67 64 59 54 47 42 39 36 34 30 26 24 18 11 8 8 10 12 16 18
0 0 0 0 0 0 0 0 0 0 0 0 0 0 0 2 8 18 30 43 55 62 63 64 64 63 59 55 51 47 43 40 38 33 28 25 20 13 9 9 10 11 14 17
0 0 0 0 0 0 0 0 0 0 0 0 0 1 1 3 9 19 28 37 47 53 56 58 58 57 56 53 51 48 45 42 38 34 28 23 20 15 10 8 9 9 12 14
0 0 0 0 0 0 0 0 0 0 0 0 1 2 2 5 11 18 23 29 36 43 48 51 51 50 50 49 48 46 41 38 36 33 27 21 20 17 12 8 6 7 9 10
0 0 0 0 0 0 0 0 0 0 0 0 1 2 3 6 11 16 19 24 30 36 41 44 44 43 44 45 45 42 36 33 33 32 26 20 17 15 12 9 7 8 8 7
0 0 0 0 0 0 0 0 0 0 0 0 0 2 3 6 11 16 21 24 27 32 36 38 38 40 42 44 43 40 34 31 30 29 25 21 17 14 12 10 9 9 7 6
0 0 0 0 0 0 0 0 0 0 0 0 1 2 4 7 12 19 23 23 24 30 35 37 37 38 41 42 41 38 33 30 27 26 25 22 19 16 13 10 9 8 7 6
0 0 0 0 0 0 0 0 0 0 0 0 2 3 5 9 13 18 21 20 22 30 36 37 37 37 39 39 37 34 30 27 26 26 25 23 20 16 12 9 7 6 6 6
0 0 0 0 0 0 0 0 0 0 0 0 2 3 5 8 11 15 18 20 25 31 34 35 34 34 34 33 31 28 25 24 25 26 26 23 18 15 11 8 5 4 4 4
0 0 0 0 0 0 0 0 0 0 0 1 4 5 6 7 9 14 18 22 28 32 33 33 32 30 28 26 25 23 21 21 23 25 24 19 14 11 9 6 4 3 3 3
0 0 0 0 0 0 0 0 0 0 0 3 7 10 10 10 12 16 21 25 27 30 31 31 28 25 23 22 22 21 20 20 21 20 18 14 10 8 7 5 3 2 2 2
0 0 0 0 0 0 0 0 0 1 3 7 12 15 17 17 17 19 21 23 24 27 29 28 25 24 22 20 19 19 19 19 18 16 14 12 9 7 5 3 1 1 1 1
0 0 0 0 0 0 0 0 2 4 8 13 17 21 25 27 25 21 20 20 21 24 25 25 24 23 22 19 18 17 17 16 14 13 12 11 11 9 6 2 0 0 0 1
0 0 0 0 0 0 0 2 6 10 14 18 23 28 31 33 31 25 20 19 20 22 23 23 23 23 21 18 17 16 14 13 12 11 10 9 10 10 8 4 1 1 1 2
0 0 0 0 0 0 3 8 12 15 19 21 25 30 31 31 30 26 23 22 22 23 23 23 22 21 18 15 14 14 13 12 11 10 8 7 8 8 7 5 4 3 3 4
0 0 0 0 0 2 7 13 15 15 18 22 25 27 27 25 25 25 24 24 24 24 24 23 20 18 15 12 11 10 10 10 9 8 7 6 6 6 6 6 6 5 5 5
1 0 0 0 1 3 7 11 12 12 16 20 23 24 22 21 21 22 21 20 21 21 21 19 16 13 10 9 8 7 6 6 6 6 6 6 6 5 4 5 6 5 4 4
2 1 1 1 2 2 4 5 7 9 13 15 16 17 17 17 18 18 16 15 15 15 14 12 11 8 6 4 4 3 3 4 5 6 5 4 4 4 4 4 4 4 3 3
2 2 2 2 3 3 3 3 5 7 9 10 11 11 13 16 17 17 15 13 12 10 8 6 6 4 2 1 1 1 1 3 4 4 4 3 3 3 3 3 2 3 3 3
0 1 1 1 2 3 4 3 4 6 7 8 10 11 12 14 17 16 13 11 9 6 4 3 3 2 1 0 0 0 0 1 2 3 3 3 3 3 3 1 1 1 2 2
0 0 0 0 1 2 2 2 3 5 6 7 9 11 11 13 15 13 10 8 6 3 2 2 1 1 0 0 0 0 0 0 1 2 3 3 3 3 2 1 0 0 1 1
Wind_Speed
3 3 6 8 8 7 4 4 7 10 7 2 5 7 9 11 12 14 14 15 15 14 11 11 13 13 12 11 11 11 11 9 8 6 5 4 4 4 4 4 6 7 7 7
1 7 9 7 6 6 7 7 9 11 8 3 4 6 8 10 13 16 16 15 15 12 11 12 12 12 12 13 12 11 12 11 9 6 5 4 4 3 4 4 5 6 7 7
9 6 7 8 7 8 9 8 9 9 8 2 4 1 3 5 6 9 11 13 15 17 17 16 15 14 13 14 14 12 12 11 9 8 5 4 3 2 2 3 4 6 7 7
7 9 7 8 10 9 9 9 8 7 2 3 3 3 5 4 4 8 10 10 12 15 15 15 15 15 15 14 12 10 11 10 9 9 8 8 6 5 5 4 4 5 6 7
7 7 9 10 12 10 10 9 6 5 2 1 1 3 6 1 3 7 11 13 13 14 16 17 16 15 14 13 13 11 11 10 10 10 10 8 6 5 3 3 5 5 5 6
8 6 7 11 11 10 9 4 3 3 4 1 4 4 5 5 8 8 9 12 13 14 14 12 11 10 9 10 11 11 11 11 11 11 10 9 8 7 6 6 6 5 4 4
6 9 7 5 6 6 5 4 3 4 3 5 4 3 7 7 7 9 11 12 12 13 13 12 11 11 10 11 12 11 11 11 11 11 10 9 9 8 9 7 7 6 4 4
5 7 7 6 8 7 6 10 9 6 4 4 2 2 6 4 2 2 5 7 9 11 12 12 12 12 12 12 12 11 12 10 10 10 9 8 8 6 5 7 6 6 6 6
7 8 7 7 7 9 5 6 9 8 3 1 3 3 5 2 2 2 4 4 6 8 10 12 12 11 12 12 12 12 11 10 10 10 8 7 7 7 6 6 5 5 5 5
6 4 6 6 3 4 8 8 6 6 5 2 2 2 4 3 3 2 2 4 6 8 7 9 10 10 9 10 9 9 10 9 8 8 8 7 7 7 6 5 6 6 6 5
5 4 6 2 5 7 4 4 6 5 6 7 3 6 6 7 6 5 4 5 6 8 8 7 8 8 8 8 8 8 8 8 7 7 6 6 5 5 5 5 5 5 4 5
5 6 4 7 6 7 7 7 8 7 3 5 5 8 6 4 4 4 4 5 6 6 7 7 6 7 7 7 7 7 6 6 6 6 6 6 5 4 4 4 4 4 4 5
6 6 1 6 5 1 3 4 6 7 6 5 5 6 2 1 2 4 5 5 6 7 8 8 8 7 7 7 7 7 6 6 5 5 5 5 4 4 4 3 3 3 3 3
6 5 7 8 6 3 2 3 5 7 5 5 6 6 4 3 4 4 4 6 7 8 10 9 8 7 6 6 6 6 5 5 5 5 5 5 4 4 4 3 2 2 3 3
5 3 3 4 3 2 2 3 4 5 8 9 9 9 9 8 8 7 7 7 8 8 9 9 8 6 6 6 5 5 5 5 5 5 4 4 3 3 3 3 2 2 2 3
4 3 1 2 3 1 2 3 3 4 5 5 6 4 4 5 6 7 9 9 9 8 8 8 8 7 6 6 6 6 5 4 4 5 4 3 3 3 3 2 2 2 2 1
2 4 3 2 4 3 3 3 2 2 3 8 8 8 8 8 7 8 10 8 9 9 8 7 6 6 5 5 5 6 5 4 4 4 3 3 3 3 2 2 1 1 1 1
3 3 3 1 3 3 7 4 2 4 2 3 6 9 11 10 7 5 7 10 8 8 8 7 5 5 5 4 4 5 5 5 4 3 3 2 3 2 2 2 2 2 2 2
5 6 3 3 1 3 5 4 2 3 1 2 9 11 12 12 10 5 2 6 8 7 8 6 4 5 5 5 5 5 5 4 4 3 2 2 3 2 2 2 2 2 2 2
4 5 5 3 3 3 5 6 5 4 1 1 7 12 13 10 7 4 4 7 9 8 7 6 5 6 6 5 5 6 5 4 4 2 2 2 2 3 2 2 2 2 2 2
3 3 3 3 2 4 4 7 3 4 4 2 4 8 8 6 7 9 10 9 9 9 8 7 7 7 5 5 6 6 5 3 2 2 2 2 2 3 3 3 3 3 3 4
4 4 3 4 3 5 5 3 2 3 2 3 5 6 9 12 13 12 12 11 10 10 10 9 8 8 6 6 7 7 5 3 3 5 5 4 4 3 3 4 4 4 4 4
1 4 4 4 4 3 1 2 1 3 5 4 5 6 12 15 14 13 12 11 9 9 9 8 9 9 7 7 7 7 4 4 5 6 5 5 6 5 5 5 5 5 4 4
2 1 2 2 1 1 3 4 4 3 5 5 8 10 12 15 15 13 11 10 9 8 9 8 9 9 7 7 7 6 5 5 6 7 6 6 7 6 7 6 5 5 4 4
2 1 2 1 0 4 5 4 4 4 6 8 9 11 12 15 15 13 12 10 9 8 8 8 8 8 7 6 6 6 5 5 7 7 6 6 6 6 7 7 7 6 6 4
1 2 3 3 3 3 1 1 4 5 6 9 13 12 10 12 14 13 11 10 10 9 8 8 8 8 6 6 6 6 5 5 6 6 5 4 4 5 5 7 8 13 10 12
Wind_Direction
207 149 210 216 200 205 237 273 279 276 278 266 208 181 178 169 170 173 175 173 177 186 180 169 166 167 163 162 167 169 166 167 159 155 157 157 165 170 175 179 177 176 175 172
225 236 224 214 226 240 252 266 275 286 280 230 193 191 191 177 179 181 179 176 177 171 168 172 168 169 167 170 174 175 174 172 171 170 165 160 159 169 177 180 180 181 177 174
199 231 205 213 230 242 253 236 245 260 299 316 134 268 232 210 170 177 185 181 176 174 176 177 176 176 172 177 178 179 177 173 173 165 152 146 132 137 166 182 185 191 184 181
230 240 224 218 231 223 252 243 239 249 266 278 137 198 260 210 186 181 185 186 185 184 177 179 180 180 181 183 180 177 176 174 172 168 172 173 177 187 196 187 185 189 189 188
232 215 215 224 229 220 233 247 241 235 203 297 11 136 271 223 194 201 189 185 185 184 179 182 185 184 182 179 176 174 177 178 175 180 183 182 189 193 178 174 182 191 196 194
241 251 212 217 234 225 227 252 338 38 77 267 241 158 249 222 203 202 192 185 180 179 180 182 180 171 175 175 175 175 177 182 181 183 185 187 188 185 178 184 189 196 201 202
267 264 253 230 235 251 199 116 34 358 19 245 253 165 238 241 211 195 186 182 178 172 173 172 168 171 176 178 178 179 179 184 185 185 189 191 191 189 189 190 194 195 200 205
209 260 243 219 200 205 190 146 159 183 206 268 323 220 261 270 227 162 152 168 168 169 171 171 172 176 180 181 179 179 182 185 185 188 195 194 190 190 195 196 196 199 205 209
190 241 258 232 201 172 172 169 168 139 157 104 296 302 317 355 14 86 116 137 163 168 169 168 172 176 176 180 179 177 180 181 183 186 189 193 194 193 198 198 196 203 210 208
178 235 271 246 214 200 168 162 110 118 145 211 280 263 234 250 249 216 158 157 171 162 163 166 170 173 171 173 169 169 175 180 181 184 188 194 194 193 192 192 202 205 208 210
176 192 287 307 192 201 166 136 121 128 151 155 206 258 225 210 206 195 180 157 157 153 157 160 165 166 158 153 156 164 170 172 178 181 184 188 191 191 186 193 204 206 207 206
177 148 237 254 237 189 168 171 147 149 194 156 163 256 262 206 191 163 152 148 141 145 149 152 147 136 136 145 149 153 159 169 177 174 172 181 184 186 193 201 205 201 206 210
157 130 110 333 332 13 162 171 152 135 128 149 161 254 272 118 141 149 150 148 133 132 131 132 128 130 141 145 148 148 152 163 161 156 160 167 174 183 194 200 201 200 205 213
127 121 155 190 217 211 204 207 155 131 149 178 199 211 237 195 153 138 140 139 131 131 128 129 130 137 137 140 142 142 146 147 146 147 154 162 173 181 187 188 190 202 202 206
100 142 188 214 234 197 219 225 199 171 175 175 202 193 212 194 165 144 127 122 122 124 124 128 131 132 131 134 136 138 142 142 146 147 157 172 175 175 172 179 190 197 198 212
68 122 122 327 320 329 310 276 242 210 173 166 157 197 207 157 129 125 128 131 133 129 124 125 125 125 128 136 138 135 138 142 142 147 157 162 161 158 162 179 191 190 200 207
46 90 90 297 322 31 297 263 229 212 180 156 175 194 152 139 146 149 144 144 145 137 131 133 134 132 134 139 141 138 142 136 135 144 153 159 159 162 175 181 168 183 184 158
123 93 110 102 49 214 245 274 194 153 168 158 149 152 151 148 141 134 146 143 139 135 133 130 137 136 134 132 123 121 118 123 128 127 135 141 138 151 159 158 158 149 131 130
149 133 115 114 140 282 310 327 331 130 341 131 137 138 132 118 93 67 89 131 137 135 128 128 134 134 121 119 120 114 109 111 109 108 117 132 140 141 137 147 156 142 131 114
94 110 113 113 135 220 259 294 305 96 28 308 142 147 145 128 124 155 132 114 114 111 106 103 106 103 102 102 107 105 104 106 113 123 120 116 125 130 134 138 123 109 110 112
69 70 120 139 177 259 275 302 359 118 214 241 155 153 142 135 143 140 119 104 103 102 99 96 90 85 86 92 99 98 95 102 123 114 93 88 101 120 121 108 98 102 97 91
153 142 159 145 174 249 310 3 94 193 188 124 117 122 114 114 114 115 109 104 99 96 90 88 87 76 67 74 87 85 75 71 86 88 81 73 67 77 92 94 89 88 89 86
131 177 169 170 201 241 303 134 153 134 120 104 113 116 122 120 122 119 114 111 106 101 96 92 91 82 66 62 76 81 59 60 79 82 79 76 68 60 67 78 83 85 80 79
322 42 111 97 336 23 37 57 56 83 109 115 123 124 122 121 121 117 114 111 104 99 98 95 90 84 71 61 64 67 61 69 81 83 80 79 77 70 66 65 63 72 70 73
279 17 78 102 162 59 39 56 76 78 93 109 109 114 123 122 120 117 114 111 108 101 93 92 91 87 77 65 61 55 59 78 87 85 83 81 82 86 76 67 56 59 53 58
286 179 165 201 210 145 160 90 98 102 111 118 113 104 106 115 115 114 111 109 107 101 98 93 88 86 79 70 62 53 54 74 91 88 82 82 83 82 89 92 75 57 61 56